一网星座-0438星 (ONEWEB-0438 )

导读

ONEWEB-0438是英国OneWeb低轨卫星互联网星座中的一颗通信卫星,由英国政府与印度Bharti Global联合控股的OneWeb公司主导,于2022年2月10日发射入轨。该星座最终规划部署约650颗卫星,轨道高度1200千米,倾角86.4°,主要面向政府及企业用户,旨在为全球偏远、网络覆盖不足区域提供高速低延迟宽带服务,填补数字鸿沟,推动全球空天地一体化通信基础设施建设。

基本信息
目录编号:
51634
目录名称:
ONEWEB-0438
国际标识:
2022-012N
轨道中心:
EARTH
卫星名称:
一网星座-0438星
卫星全名:
一网星座-0438星 (ONEWEB-0438 )
卫星状态:
在轨 (已飞行1585 天)
发射日期:
2022-02-10 UTC
国别 :
英国 (GB)
星等 :
--
轨道信息
数据来源 国际轨道数据 AOE轨道数据
星历时间 2026-06-14T05:29:41+0800
14小时前
查看轨道信息
2026-06-08T02:00:00+0800
6天前
查看轨道信息
半长轴 7599.862km 7599.849km
偏心率 0.0001984 0.0002475
轨道倾角 87.883° 87.887°
近地点辐角 80.644° 70.222°
升交点赤经 36.936° 38.156°
平近点角 279.491° 115.373°
近地点 1220.217km 1219.831km
远地点 1223.233km 1223.593km
周期 109.893分钟 109.892分钟
每日圈数 13.103709 13.103743
详细信息
平衡模式:
三轴稳定
覆盖范围:
全球
运营商:
一网卫星公司
运营商所在国:
英国
制造商(研发单位):
一网卫星公司
制造商所在国:
英国
使用方式:
暂无
卫星简介
OneWeb卫星网络由648颗重约125公斤的微型卫星组成,运行在1200公里的轨道上。 每颗卫星都能够提供至少每秒8千兆位的吞吐量,以使用其高吞吐量的Ku频段有效载荷为家庭和移动平台提供互联网接入。该卫星仍在工作。
2D轨道图
3D轨道图
轨道高度分析图
轨道倾角分析图
轨道综合分析图
查看轨道综合分析图